DECAYED

CZ-6A DEB, 61343 (Decayed)

Orbit data source: Space-Track

CZ-6A DEB, 61343 was space debris in LEO originally from a launch on Tue, 06 Aug 2024 UTC launched from the Taiyaun Space Center, China (TSC). Debris objects in space refer to the collection of defunct objects orbiting the Earth. Examples of debris include non-operational satellites, rocket bodies, and fragments generated from explosions, collisions, or faulty payload assembly.

Not visible in the next 10 days
Identifier
61343, 2024-140VG
Orbit
Decayed
Country
Flag of CNCN / PRC
Related business
Manufacturer
SAST
Mission
Decayed spacecraft
Bus & Motor
Unknown
Mass
Unknown
Launch date (UTC)
2024-08-06 (2 years ago)
Launch vehicle
Unknown
Launch site
Taiyaun Space Center, China (TSC)
Object type
Payload
Rocket body
Debris
Shape & HBR
Unknown shape, 1.1 m
Radar Cross Section
Medium (>0.1 m² and <1 m²)

Expand to show TLE details & history
Last TLE update: 1 year ago

TLE from 1 year ago
0 CZ-6A DEB
1 61343U 24140VG  25098.53076782  .06112098  71187-1  28826-1 0  9999
2 61343  89.2588 329.9802 0019884 207.7378 152.2846 15.89684865 33044
Epoch: 2025-04-08T12:44Z
TLE epoch observation values (Epoch: 2025-04-08T12:44:18.339Z)
Latitude
-0.00011°
Longitude
-58.12673°
Altitude
318.228 km
Speed
7.71 km/s
True Right ascension
21h 59m 55s
True Declination
0° 00' 00"
Sunlit
Object was in daylight at epoch
Visualization orbit readout
Latitude
Unknown
Longitude
Unknown
Altitude
Unknown
Speed
Unknown
Apparent Right ascension
Unknown
Apparent Declination
Unknown
Sunlit
N/A
Visualization observer readout
Local Sidereal Time
10:18:03
Azimuth
Unknown
Elevation
Unknown
Doppler factor
Unknown
Orbital elements
Apogee altitude
313.155 km
Perigee altitude
286.598 km
Semi-major axis
6,678.014 km
Eccentricity
0.00199
Inclination
89.2588°
RAAN
329.9802°
Arg. of periapsis
207.7378°
True anomaly
152.39034°
Mean anomaly
152.2846°
Eccentric anomaly
152.33749°
Mean motion
3.97715 °/min
Orbital period
90.52 mins
BSTAR
0.028826
Loading maneuver chart data...
Computing Atmospheric mass density...
Loading historical data...
Loading historical data...
Loading historical data...
Loading historical data...
Loading historical data...
Loading historical data...
Loading historical data...

Documentation

Showing up to 5 results
|